{"data":{"norad_id":59175,"intl_designator":"2023-174DK","name":"EXO-0","alt_names":[],"object_type":"PAYLOAD","status":"ACTIVE","operator":null,"country":"FR","launch_date":"2023-11-11","launch_site_code":"AFWTR","launch_vehicle":null,"mission":null,"orbit_class":"UNKNOWN","rcs_meters":null,"size_class":null,"mass_kg":null,"dimensions":null,"purposes":[],"wikipedia_slug":null,"has_3d_model":false,"image_url":null,"decayed_at":null,"tle_current":{"epoch":"2026-05-24T15:49:41.206944Z","epoch_age_seconds":104222,"freshness":"FRESH","line1":"1 59175U 23174DK  26144.65950471  .00007446  00000+0  22702-3 0  9994","line2":"2 59175  97.3819 224.8041 0007661 248.4092 111.6335 15.34219042141430","mean_motion":15.34219042,"eccentricity":0.0007661,"inclination_deg":97.3819,"raan_deg":224.8041,"arg_perigee_deg":248.4092,"mean_anomaly_deg":111.6335,"bstar":0.00022702,"rev_number":14143,"period_min":93.858827232572,"perigee_km":457.99995859056,"apogee_km":468.48231817419,"semimajor_km":6841.3781383824,"source":"CELESTRAK","updated_at":"2026-05-25T13:38:01.230737Z"}}}